Powrót do katalogu

PEGASUS DEB

LostPO
NORAD 27755·DEBRIS·🇺🇸 United States

Wystrzelony May 19, 1994 z Vandenberg Space Force Base

Loading…

Następne Przeloty (najbliższe 24 godziny)

TLE

NieaktualneSource: Space-Track

Epoka: Oct 28, 2005, 12:03 UTC

1 27755U 94029AEK 05301.50218394  .00000708  00000-0  38671-3 0  9994
2 27755  81.8188 133.1962 0861058  33.6818 331.6603 12.99182376142618

Śledź PEGASUS DEB w czasie rzeczywistym z AllMySat

Download on the App Store